DAH2073 EDDF-DAAG

Flight info

Callsign DAH2073
Flight time 3h 43m
Altitude 35000
Route ANEKI2L/18 ANEKI Y163 HERBI Y164 MOPAN/N0460F370 DCT LUTIX DCT BENOT DCT NEMOS DCT INCUS DCT BALSI DCT RETNO DCT TUPOX DCT MTG DCT DIVKO DCT VATIR DCT PIVUS N852 GENIO N855 BUYAH DCT SARAN
Aircraft B738/M-SDE2E3FGHIRWXY/LB1

Departure

Time 2026-05-06 13:39
Airport Frankfurt Main Airport (EDDF)

Arrival

Time 2026-05-06 17:22
Airport Houari Boumediene Airport (DAAG)
Time Latitude Longitude Altitude Speed Heading
2026-05-06 12:49 50.02948 8.57754 361 ft 0 kts 25°
2026-05-06 13:19 50.02942 8.57749 362 ft 4 kts 25°
2026-05-06 13:19 50.02917 8.57732 363 ft 4 kts 24°
2026-05-06 13:19 50.02897 8.57719 362 ft 4 kts 356°
2026-05-06 13:19 50.02883 8.57735 354 ft 4 kts 279°
2026-05-06 13:20 50.02881 8.57762 354 ft 4 kts 272°
2026-05-06 13:20 50.02882 8.57728 355 ft 4 kts 272°
2026-05-06 13:20 50.02883 8.57686 356 ft 4 kts 272°
2026-05-06 13:20 50.02884 8.57644 352 ft 3 kts 272°
2026-05-06 13:21 50.02884 8.57639 352 ft 1 kts 272°
2026-05-06 13:29 50.02884 8.57637 352 ft 2 kts 272°
2026-05-06 13:30 50.02888 8.57558 357 ft 11 kts 287°
2026-05-06 13:30 50.02933 8.57411 358 ft 17 kts 294°
2026-05-06 13:30 50.02982 8.57243 353 ft 17 kts 295°
2026-05-06 13:30 50.03030 8.57081 352 ft 16 kts 294°
2026-05-06 13:31 50.03087 8.56941 353 ft 15 kts 332°
2026-05-06 13:31 50.03185 8.56882 356 ft 13 kts 339°
2026-05-06 13:31 50.03207 8.56870 355 ft 0 kts 340°
2026-05-06 13:32 50.03208 8.56870 355 ft 0 kts 340°
2026-05-06 13:32 50.03229 8.56857 357 ft 9 kts 340°
2026-05-06 13:32 50.03261 8.56727 355 ft 20 kts 251°
2026-05-06 13:33 50.03208 8.56504 349 ft 23 kts 250°
2026-05-06 13:33 50.03152 8.56269 350 ft 23 kts 250°
2026-05-06 13:33 50.03098 8.56043 349 ft 22 kts 250°
2026-05-06 13:33 50.03045 8.55820 352 ft 21 kts 250°
2026-05-06 13:34 50.02994 8.55606 346 ft 21 kts 250°
2026-05-06 13:34 50.02942 8.55393 349 ft 22 kts 250°
2026-05-06 13:34 50.02884 8.55151 346 ft 26 kts 250°
2026-05-06 13:34 50.02816 8.54866 338 ft 30 kts 249°
2026-05-06 13:35 50.02742 8.54560 337 ft 30 kts 249°
2026-05-06 13:35 50.02677 8.54265 337 ft 28 kts 257°
2026-05-06 13:35 50.02616 8.53988 333 ft 26 kts 250°
2026-05-06 13:35 50.02556 8.53733 334 ft 25 kts 249°
2026-05-06 13:36 50.02498 8.53492 332 ft 23 kts 249°
2026-05-06 13:36 50.02443 8.53262 335 ft 22 kts 250°
2026-05-06 13:36 50.02390 8.53039 332 ft 22 kts 250°
2026-05-06 13:36 50.02342 8.52845 332 ft 8 kts 249°
2026-05-06 13:37 50.02323 8.52767 330 ft 8 kts 249°
2026-05-06 13:37 50.02304 8.52688 332 ft 9 kts 249°
2026-05-06 13:37 50.02272 8.52605 333 ft 7 kts 196°
2026-05-06 13:37 50.02257 8.52604 333 ft 0 kts 180°
2026-05-06 13:38 50.02236 8.52604 334 ft 11 kts 180°
2026-05-06 13:38 50.01938 8.52607 332 ft 79 kts 180°
2026-05-06 13:38 50.01160 8.52617 328 ft 141 kts 180°
2026-05-06 13:39 50.00048 8.52527 635 ft 169 kts 187°
2026-05-06 13:39 49.98885 8.52365 1540 ft 168 kts 181°
2026-05-06 13:39 49.97709 8.52514 2283 ft 175 kts 177°
2026-05-06 13:39 49.96425 8.52749 2728 ft 194 kts 177°
2026-05-06 13:40 49.95001 8.52922 2972 ft 214 kts 180°
2026-05-06 13:40 49.93480 8.53043 3378 ft 222 kts 180°
2026-05-06 13:40 49.91919 8.53165 3892 ft 226 kts 179°
2026-05-06 13:40 49.90362 8.53286 4504 ft 227 kts 180°
2026-05-06 13:41 49.88778 8.53403 5127 ft 229 kts 179°
2026-05-06 13:41 49.87170 8.53530 5814 ft 232 kts 180°
2026-05-06 13:41 49.85572 8.53637 6553 ft 233 kts 180°
2026-05-06 13:41 49.83936 8.53747 7209 ft 236 kts 180°
2026-05-06 13:42 49.82287 8.53861 7951 ft 237 kts 180°
2026-05-06 13:42 49.80624 8.53976 8631 ft 241 kts 180°
2026-05-06 13:42 49.78928 8.54093 9311 ft 245 kts 180°
2026-05-06 13:42 49.77204 8.54133 9853 ft 254 kts 185°
2026-05-06 13:43 49.75388 8.53922 10044 ft 276 kts 187°
2026-05-06 13:43 49.73402 8.53623 10232 ft 297 kts 188°
2026-05-06 13:43 49.71271 8.53299 10397 ft 318 kts 187°
2026-05-06 13:43 49.68992 8.52963 10577 ft 338 kts 187°
2026-05-06 13:44 49.66592 8.52622 10932 ft 351 kts 187°
2026-05-06 13:44 49.64136 8.52284 11478 ft 356 kts 187°
2026-05-06 13:44 49.61676 8.51953 12155 ft 358 kts 186°
2026-05-06 13:44 49.59193 8.51623 12825 ft 361 kts 186°
2026-05-06 13:45 49.56676 8.51289 13516 ft 364 kts 186°
2026-05-06 13:45 49.51614 8.50621 14769 ft 369 kts 186°
2026-05-06 13:45 49.49041 8.50281 15351 ft 373 kts 186°
2026-05-06 13:46 49.46436 8.49937 15975 ft 376 kts 186°
2026-05-06 13:46 49.43835 8.49594 16565 ft 380 kts 186°
2026-05-06 13:46 49.41184 8.49247 17217 ft 381 kts 185°
2026-05-06 13:46 49.38520 8.48896 17812 ft 385 kts 186°
2026-05-06 13:47 49.35830 8.48542 18357 ft 388 kts 185°
2026-05-06 13:47 49.33156 8.48191 18840 ft 391 kts 185°
2026-05-06 13:47 49.30438 8.47836 19359 ft 394 kts 185°
2026-05-06 13:47 49.27692 8.47482 19846 ft 397 kts 185°
2026-05-06 13:48 49.24930 8.47132 20398 ft 398 kts 185°
2026-05-06 13:48 49.22158 8.46783 20909 ft 400 kts 185°
2026-05-06 13:48 49.19363 8.46431 21378 ft 403 kts 185°
2026-05-06 13:48 49.16585 8.46082 21817 ft 407 kts 185°
2026-05-06 13:49 49.13743 8.45724 22267 ft 410 kts 185°
2026-05-06 13:49 49.10887 8.45364 22744 ft 412 kts 185°
2026-05-06 13:49 49.08015 8.45003 23236 ft 415 kts 185°
2026-05-06 13:49 49.05138 8.44492 23661 ft 418 kts 191°
2026-05-06 13:50 49.02292 8.43541 24068 ft 420 kts 193°
2026-05-06 13:50 48.99451 8.42492 24465 ft 421 kts 194°
2026-05-06 13:50 48.96598 8.41432 24835 ft 423 kts 193°
2026-05-06 13:50 48.93756 8.40397 25193 ft 424 kts 193°
2026-05-06 13:51 48.90871 8.39369 25574 ft 425 kts 193°
2026-05-06 13:51 48.87981 8.38356 25952 ft 426 kts 193°
2026-05-06 13:51 48.85096 8.37352 26305 ft 427 kts 193°
2026-05-06 13:51 48.82185 8.36341 26659 ft 429 kts 193°
2026-05-06 13:52 48.79264 8.35328 27086 ft 430 kts 193°
2026-05-06 13:52 48.76381 8.34308 27532 ft 431 kts 193°
2026-05-06 13:52 48.73456 8.33237 27985 ft 431 kts 193°
2026-05-06 13:52 48.70756 8.32251 28354 ft 431 kts 193°
2026-05-06 13:53 48.67840 8.31189 28739 ft 431 kts 193°
2026-05-06 13:53 48.64931 8.30129 29216 ft 428 kts 193°
2026-05-06 13:53 48.62075 8.29091 29736 ft 424 kts 193°
2026-05-06 13:53 48.59209 8.28052 30151 ft 422 kts 193°
2026-05-06 13:54 48.56467 8.27059 30447 ft 422 kts 193°
2026-05-06 13:54 48.53680 8.26052 30743 ft 421 kts 193°
2026-05-06 13:54 48.50814 8.25019 31118 ft 420 kts 193°
2026-05-06 13:54 48.48008 8.24006 31490 ft 418 kts 194°
2026-05-06 13:55 48.45176 8.22977 31854 ft 416 kts 194°
2026-05-06 13:55 48.42368 8.21953 32198 ft 415 kts 194°
2026-05-06 13:55 48.39613 8.20949 32560 ft 414 kts 194°
2026-05-06 13:55 48.36809 8.19927 32905 ft 413 kts 194°
2026-05-06 13:56 48.34057 8.18927 33295 ft 411 kts 195°
2026-05-06 13:56 48.31285 8.17921 33746 ft 407 kts 195°
2026-05-06 13:56 48.28523 8.16921 34041 ft 406 kts 195°
2026-05-06 13:56 48.25764 8.15902 34205 ft 408 kts 197°
2026-05-06 13:57 48.23112 8.14504 34327 ft 409 kts 206°
2026-05-06 13:57 48.20555 8.12597 34506 ft 410 kts 207°
2026-05-06 13:57 48.18009 8.10676 34732 ft 410 kts 207°
2026-05-06 13:57 48.15450 8.08757 34816 ft 412 kts 207°
2026-05-06 13:58 48.10291 8.04924 34827 ft 412 kts 207°
2026-05-06 13:58 48.05120 8.01108 35018 ft 415 kts 206°
2026-05-06 13:59 48.02566 7.99230 35259 ft 415 kts 206°
2026-05-06 13:59 47.99974 7.97325 35469 ft 415 kts 206°
2026-05-06 13:59 47.97371 7.95415 35656 ft 416 kts 206°
2026-05-06 13:59 47.95646 7.94150 35761 ft 417 kts 206°
2026-05-06 14:00 47.93039 7.92240 35989 ft 416 kts 206°
2026-05-06 14:00 47.89589 7.89716 36217 ft 417 kts 207°
2026-05-06 14:00 47.87862 7.88454 36319 ft 418 kts 206°
2026-05-06 14:00 47.85247 7.86544 36491 ft 418 kts 207°
2026-05-06 14:01 47.82623 7.84630 36682 ft 419 kts 207°
2026-05-06 14:01 47.79993 7.82715 36828 ft 419 kts 207°
2026-05-06 14:01 47.74737 7.78891 36857 ft 424 kts 206°
2026-05-06 14:02 47.69486 7.75082 36860 ft 418 kts 207°
2026-05-06 14:02 47.64281 7.71314 36876 ft 413 kts 207°
2026-05-06 14:03 47.59116 7.67583 36892 ft 414 kts 207°
2026-05-06 14:03 47.53918 7.63835 36887 ft 420 kts 207°
2026-05-06 14:04 47.48666 7.60057 36888 ft 421 kts 207°
2026-05-06 14:04 47.43384 7.56267 36873 ft 420 kts 207°
2026-05-06 14:05 47.38113 7.52492 36874 ft 420 kts 207°
2026-05-06 14:05 47.32891 7.48761 36873 ft 419 kts 206°
2026-05-06 14:06 47.27666 7.45035 36900 ft 418 kts 206°
2026-05-06 14:06 47.22457 7.41329 36895 ft 417 kts 206°
2026-05-06 14:07 47.17405 7.37164 36888 ft 417 kts 217°
2026-05-06 14:07 47.13265 7.31285 36886 ft 418 kts 230°
2026-05-06 14:08 47.09696 7.24535 36875 ft 418 kts 230°
2026-05-06 14:08 47.06112 7.17869 36883 ft 417 kts 230°
2026-05-06 14:09 47.02481 7.11225 36882 ft 417 kts 230°
2026-05-06 14:09 46.98836 7.04586 36907 ft 417 kts 230°
2026-05-06 14:10 46.95218 6.97999 36903 ft 417 kts 230°
2026-05-06 14:10 46.91395 6.91595 36912 ft 416 kts 221°
2026-05-06 14:11 46.86669 6.86796 36929 ft 418 kts 210°
2026-05-06 14:11 46.81574 6.82623 36920 ft 421 kts 210°
2026-05-06 14:12 46.76475 6.78440 36890 ft 423 kts 210°
2026-05-06 14:12 46.71530 6.74358 36900 ft 423 kts 210°
2026-05-06 14:13 46.66397 6.70115 36904 ft 423 kts 210°
2026-05-06 14:13 46.61300 6.65908 36912 ft 423 kts 210°
2026-05-06 14:14 46.56167 6.61680 36910 ft 424 kts 210°
2026-05-06 14:14 46.51035 6.57462 36900 ft 422 kts 210°
2026-05-06 14:15 46.45955 6.53297 36908 ft 420 kts 210°
2026-05-06 14:15 46.40871 6.49137 36909 ft 418 kts 210°
2026-05-06 14:16 46.35827 6.45020 36916 ft 416 kts 210°
2026-05-06 14:16 46.30780 6.40908 36950 ft 415 kts 210°
2026-05-06 14:17 46.25733 6.36804 36940 ft 416 kts 210°
2026-05-06 14:17 46.20706 6.32726 36948 ft 417 kts 210°
2026-05-06 14:18 46.15612 6.28602 36938 ft 421 kts 210°
2026-05-06 14:18 46.10516 6.24485 36937 ft 423 kts 210°
2026-05-06 14:19 46.05343 6.20316 36938 ft 425 kts 210°
2026-05-06 14:19 46.00194 6.16174 36924 ft 427 kts 210°
2026-05-06 14:20 45.94998 6.12003 36938 ft 426 kts 210°
2026-05-06 14:20 45.89813 6.07849 36935 ft 425 kts 210°
2026-05-06 14:21 45.84461 6.04357 36947 ft 426 kts 199°
2026-05-06 14:21 45.78622 6.02791 36937 ft 428 kts 191°
2026-05-06 14:22 45.72751 6.01568 36928 ft 427 kts 191°
2026-05-06 14:22 45.66878 6.00302 36925 ft 424 kts 192°
2026-05-06 14:23 45.61050 5.99024 36928 ft 422 kts 192°
2026-05-06 14:23 45.55286 5.97759 36931 ft 421 kts 192°
2026-05-06 14:24 45.49489 5.96491 36937 ft 420 kts 192°
2026-05-06 14:24 45.43763 5.94953 36931 ft 417 kts 195°
2026-05-06 14:25 45.38136 5.93165 36930 ft 416 kts 195°
2026-05-06 14:25 45.32464 5.91359 36929 ft 417 kts 195°
2026-05-06 14:26 45.26821 5.89588 36927 ft 418 kts 195°
2026-05-06 14:26 45.21111 5.87812 36926 ft 420 kts 195°
2026-05-06 14:27 45.15408 5.86044 36916 ft 422 kts 195°
2026-05-06 14:27 45.09676 5.84272 36937 ft 424 kts 195°
2026-05-06 14:28 45.03912 5.82492 36895 ft 426 kts 195°
2026-05-06 14:28 44.98141 5.80716 36910 ft 423 kts 195°
2026-05-06 14:29 44.92420 5.78958 36911 ft 421 kts 195°
2026-05-06 14:29 44.86697 5.77203 36914 ft 418 kts 195°
2026-05-06 14:30 44.81070 5.75480 36911 ft 415 kts 196°
2026-05-06 14:30 44.75427 5.73755 36907 ft 412 kts 196°
2026-05-06 14:31 44.69821 5.72046 36903 ft 410 kts 196°
2026-05-06 14:31 44.64300 5.70364 36914 ft 411 kts 195°
2026-05-06 14:32 44.58638 5.68640 36919 ft 419 kts 195°
2026-05-06 14:32 44.52928 5.66909 36911 ft 423 kts 195°
2026-05-06 14:33 44.47154 5.65164 36902 ft 425 kts 195°
2026-05-06 14:33 44.41365 5.63416 36921 ft 424 kts 195°
2026-05-06 14:34 44.35687 5.61242 36905 ft 420 kts 204°
2026-05-06 14:34 44.30293 5.58219 36904 ft 418 kts 204°
2026-05-06 14:35 44.24929 5.55230 36904 ft 416 kts 204°
2026-05-06 14:35 44.19527 5.52258 36885 ft 415 kts 204°
2026-05-06 14:36 44.14191 5.49340 36912 ft 412 kts 204°
2026-05-06 14:36 44.08844 5.46423 36876 ft 412 kts 204°
2026-05-06 14:37 44.03532 5.43527 36890 ft 411 kts 204°
2026-05-06 14:37 43.98194 5.40625 36894 ft 410 kts 204°
2026-05-06 14:38 43.92866 5.37741 36896 ft 411 kts 204°
2026-05-06 14:38 43.87708 5.34960 36893 ft 410 kts 205°
2026-05-06 14:39 43.82314 5.32054 36915 ft 410 kts 204°
2026-05-06 14:39 43.76983 5.29187 36912 ft 411 kts 204°
2026-05-06 14:40 43.71648 5.26323 36907 ft 412 kts 204°
2026-05-06 14:40 43.66296 5.23456 36901 ft 413 kts 205°
2026-05-06 14:41 43.61160 5.20709 36910 ft 413 kts 205°
2026-05-06 14:41 43.55827 5.17863 36908 ft 413 kts 205°
2026-05-06 14:42 43.50463 5.15004 36901 ft 413 kts 205°
2026-05-06 14:42 43.45126 5.12165 36909 ft 412 kts 205°
2026-05-06 14:43 43.39787 5.09305 36909 ft 410 kts 207°
2026-05-06 14:43 43.34936 5.05329 36924 ft 404 kts 217°
2026-05-06 14:44 43.30333 5.00924 36904 ft 404 kts 217°
2026-05-06 14:45 43.23392 4.94368 36938 ft 403 kts 217°
2026-05-06 14:45 43.18759 4.90018 36926 ft 403 kts 217°
2026-05-06 14:46 43.14148 4.85695 36926 ft 403 kts 217°
2026-05-06 14:46 43.09510 4.81354 36922 ft 403 kts 217°
2026-05-06 14:47 43.04870 4.77096 36927 ft 405 kts 213°
2026-05-06 14:47 42.99941 4.73325 36932 ft 406 kts 212°
2026-05-06 14:48 42.95000 4.69632 36930 ft 407 kts 212°
2026-05-06 14:48 42.90029 4.65900 36930 ft 407 kts 212°
2026-05-06 14:49 42.85057 4.62154 36935 ft 407 kts 212°
2026-05-06 14:49 42.80120 4.58434 36934 ft 408 kts 212°
2026-05-06 14:50 42.75153 4.54697 36944 ft 409 kts 212°
2026-05-06 14:50 42.70161 4.50949 36942 ft 409 kts 212°
2026-05-06 14:51 42.65192 4.47225 36942 ft 410 kts 212°
2026-05-06 14:51 42.60193 4.43485 36945 ft 410 kts 212°
2026-05-06 14:52 42.55210 4.39765 36945 ft 410 kts 212°
2026-05-06 14:52 42.51051 4.36665 36935 ft 410 kts 212°
2026-05-06 14:53 42.45231 4.32334 36945 ft 409 kts 212°
2026-05-06 14:53 42.41074 4.29246 36949 ft 408 kts 212°
2026-05-06 14:54 42.36093 4.25553 36949 ft 408 kts 212°
2026-05-06 14:54 42.31292 4.21999 36944 ft 407 kts 212°
2026-05-06 14:55 42.26337 4.18338 36962 ft 405 kts 212°
2026-05-06 14:55 42.21405 4.14699 36953 ft 405 kts 212°
2026-05-06 14:56 42.16465 4.11062 36952 ft 404 kts 212°
2026-05-06 14:56 42.11535 4.07434 36943 ft 403 kts 212°
2026-05-06 14:57 42.06636 4.03833 36948 ft 403 kts 212°
2026-05-06 14:57 42.01705 4.00213 36955 ft 402 kts 212°
2026-05-06 14:58 41.96810 3.96627 36949 ft 403 kts 212°
2026-05-06 14:58 41.91718 3.93426 36921 ft 408 kts 202°
2026-05-06 14:59 41.86107 3.91863 36951 ft 413 kts 195°
2026-05-06 14:59 41.80460 3.90601 36954 ft 413 kts 195°
2026-05-06 15:00 41.74785 3.89296 36954 ft 413 kts 195°
2026-05-06 15:00 41.69141 3.87983 36940 ft 413 kts 195°
2026-05-06 15:01 41.63467 3.86665 36953 ft 413 kts 195°
2026-05-06 15:01 41.57781 3.85352 36954 ft 413 kts 195°
2026-05-06 15:02 41.52142 3.84065 36955 ft 414 kts 195°
2026-05-06 15:02 41.46461 3.82772 36960 ft 413 kts 195°
2026-05-06 15:03 41.40814 3.81486 36959 ft 413 kts 195°
2026-05-06 15:03 41.35138 3.80195 36963 ft 413 kts 195°
2026-05-06 15:04 41.29488 3.78912 36954 ft 414 kts 195°
2026-05-06 15:04 41.23801 3.77623 36955 ft 413 kts 195°
2026-05-06 15:05 41.18114 3.76336 36958 ft 414 kts 195°
2026-05-06 15:05 41.12453 3.75058 36957 ft 414 kts 195°
2026-05-06 15:06 41.06794 3.73779 36926 ft 414 kts 195°
2026-05-06 15:06 41.01110 3.72497 36943 ft 414 kts 195°
2026-05-06 15:07 40.95428 3.71217 36952 ft 413 kts 195°
2026-05-06 15:07 40.89788 3.69948 36948 ft 413 kts 195°
2026-05-06 15:08 40.84097 3.68670 36929 ft 413 kts 195°
2026-05-06 15:08 40.78454 3.67406 36946 ft 413 kts 195°
2026-05-06 15:09 40.72779 3.66136 36949 ft 413 kts 195°
2026-05-06 15:09 40.67107 3.64869 36948 ft 413 kts 195°
2026-05-06 15:10 40.61464 3.63611 36949 ft 413 kts 195°
2026-05-06 15:10 40.55783 3.62346 36952 ft 413 kts 195°
2026-05-06 15:11 40.50142 3.61093 36945 ft 413 kts 195°
2026-05-06 15:11 40.44507 3.59842 36945 ft 413 kts 195°
2026-05-06 15:12 40.38828 3.58585 36945 ft 412 kts 195°
2026-05-06 15:12 40.33199 3.57340 36946 ft 412 kts 195°
2026-05-06 15:13 40.27533 3.56090 36944 ft 412 kts 195°
2026-05-06 15:13 40.21865 3.54840 36947 ft 412 kts 195°
2026-05-06 15:14 40.16240 3.53603 36948 ft 412 kts 195°
2026-05-06 15:14 40.10569 3.52357 36943 ft 412 kts 195°
2026-05-06 15:15 40.04928 3.51116 36943 ft 412 kts 195°
2026-05-06 15:15 39.99258 3.49865 36946 ft 413 kts 195°
2026-05-06 15:16 39.93576 3.48613 36935 ft 413 kts 195°
2026-05-06 15:16 39.87923 3.47370 36943 ft 414 kts 195°
2026-05-06 15:17 39.82233 3.46122 36938 ft 414 kts 195°
2026-05-06 15:17 39.76577 3.44882 36938 ft 415 kts 195°
2026-05-06 15:18 39.70868 3.43634 36926 ft 415 kts 195°
2026-05-06 15:18 39.65145 3.42419 36942 ft 416 kts 195°
2026-05-06 15:19 39.60116 3.41388 36942 ft 417 kts 195°
2026-05-06 15:19 39.54389 3.40215 36941 ft 417 kts 195°
2026-05-06 15:20 39.48644 3.39035 36930 ft 417 kts 195°
2026-05-06 15:20 39.42903 3.37855 36938 ft 417 kts 195°
2026-05-06 15:21 39.37200 3.36684 36939 ft 417 kts 195°
2026-05-06 15:21 39.31444 3.35504 36934 ft 417 kts 195°
2026-05-06 15:22 39.25713 3.34332 36928 ft 416 kts 195°
2026-05-06 15:22 39.20016 3.33168 36929 ft 416 kts 195°
2026-05-06 15:23 39.14292 3.32000 36926 ft 416 kts 195°
2026-05-06 15:23 39.08593 3.30839 36929 ft 416 kts 195°
2026-05-06 15:24 39.02863 3.29675 36922 ft 416 kts 195°
2026-05-06 15:24 38.97189 3.28518 36930 ft 416 kts 195°
2026-05-06 15:25 38.91462 3.27349 36926 ft 416 kts 195°
2026-05-06 15:25 38.85720 3.26178 36927 ft 416 kts 195°
2026-05-06 15:26 38.80359 3.25087 36936 ft 416 kts 195°
2026-05-06 15:26 38.74677 3.23938 36900 ft 402 kts 195°
2026-05-06 15:26 38.71955 3.23395 36909 ft 387 kts 196°
2026-05-06 15:27 38.69365 3.22876 36903 ft 374 kts 196°
2026-05-06 15:27 38.66852 3.22371 36904 ft 361 kts 196°
2026-05-06 15:27 38.64418 3.21880 36908 ft 349 kts 197°
2026-05-06 15:28 38.59581 3.20886 36921 ft 356 kts 197°
2026-05-06 15:28 38.54632 3.19871 36941 ft 368 kts 196°
2026-05-06 15:29 38.49494 3.18832 36935 ft 375 kts 196°
2026-05-06 15:29 38.44345 3.17799 36924 ft 375 kts 196°
2026-05-06 15:30 38.39255 3.16783 36920 ft 365 kts 196°
2026-05-06 15:30 38.34257 3.15776 36936 ft 365 kts 196°
2026-05-06 15:31 38.29206 3.14809 36923 ft 369 kts 192°
2026-05-06 15:31 38.24014 3.14816 36921 ft 376 kts 186°
2026-05-06 15:32 38.16143 3.15023 36923 ft 377 kts 187°
2026-05-06 15:32 38.10892 3.15279 36920 ft 384 kts 179°
2026-05-06 15:33 38.05613 3.16952 36925 ft 392 kts 173°
2026-05-06 15:33 38.00373 3.18806 36928 ft 393 kts 173°
2026-05-06 15:34 37.95089 3.20650 36925 ft 393 kts 173°
2026-05-06 15:34 37.89791 3.22474 36901 ft 394 kts 173°
2026-05-06 15:35 37.84530 3.24275 36918 ft 393 kts 173°
2026-05-06 15:35 37.79239 3.26080 36924 ft 393 kts 173°
2026-05-06 15:36 37.73944 3.27885 36922 ft 393 kts 173°
2026-05-06 15:36 37.68690 3.29673 36922 ft 392 kts 173°
2026-05-06 15:37 37.63419 3.31465 36917 ft 391 kts 174°
2026-05-06 15:37 37.58169 3.33247 36915 ft 390 kts 174°
2026-05-06 15:38 37.52959 3.35012 36923 ft 389 kts 174°
2026-05-06 15:38 37.47725 3.36783 36922 ft 389 kts 174°
2026-05-06 15:39 37.42501 3.38547 36889 ft 388 kts 174°
2026-05-06 15:39 37.37315 3.40158 36896 ft 386 kts 174°
2026-05-06 15:40 37.32157 3.42149 36915 ft 385 kts 175°
2026-05-06 15:40 37.26963 3.43825 36917 ft 385 kts 176°
2026-05-06 15:41 37.21766 3.45529 36924 ft 386 kts 175°
2026-05-06 15:41 37.16599 3.47251 36905 ft 386 kts 175°
2026-05-06 15:42 37.11396 3.49010 36918 ft 387 kts 176°
2026-05-06 15:42 37.06212 3.50761 36917 ft 388 kts 176°
2026-05-06 15:43 37.01005 3.52518 36916 ft 387 kts 176°
2026-05-06 15:43 36.95876 3.54251 36914 ft 386 kts 176°
2026-05-06 15:44 36.90692 3.55962 36862 ft 387 kts 173°
2026-05-06 15:44 36.86418 3.57788 36899 ft 387 kts 174°
2026-05-06 15:45 36.81344 3.59786 36911 ft 384 kts 176°
2026-05-06 15:45 36.76262 3.61756 36910 ft 384 kts 176°
2026-05-06 15:46 36.71129 3.63732 36912 ft 385 kts 176°
2026-05-06 15:46 36.66042 3.65748 36848 ft 370 kts 190°
2026-05-06 15:47 36.63517 3.66027 36410 ft 393 kts 165°
2026-05-06 15:47 36.61681 3.69125 33222 ft 497 kts 141°
2026-05-06 15:47 36.59722 3.69351 26737 ft 369 kts 265°
2026-05-06 15:47 36.58954 3.65817 23414 ft 457 kts 206°
2026-05-06 15:48 36.55846 3.66698 22097 ft 480 kts 158°
2026-05-06 15:48 36.52826 3.67174 22267 ft 429 kts 195°
2026-05-06 15:48 36.49959 3.67348 22407 ft 422 kts 158°
2026-05-06 15:48 36.47246 3.68344 22602 ft 401 kts 195°
2026-05-06 15:49 36.44502 3.67955 22855 ft 416 kts 164°
2026-05-06 15:49 36.41822 3.69336 23141 ft 411 kts 184°
2026-05-06 15:49 36.39111 3.68585 23423 ft 406 kts 187°
2026-05-06 15:49 36.36350 3.69602 23648 ft 419 kts 168°
2026-05-06 15:50 36.33522 3.69538 23812 ft 408 kts 187°
2026-05-06 15:50 36.30766 3.70461 24010 ft 425 kts 164°
2026-05-06 15:50 36.27913 3.70770 24204 ft 409 kts 187°
2026-05-06 15:50 36.25065 3.71487 24427 ft 422 kts 169°
2026-05-06 15:51 36.22250 3.71940 24660 ft 412 kts 177°
2026-05-06 15:51 36.19437 3.72612 24890 ft 409 kts 177°
2026-05-06 15:51 36.16631 3.73232 25101 ft 410 kts 177°
2026-05-06 15:51 36.13831 3.73909 25332 ft 412 kts 176°
2026-05-06 15:52 36.11034 3.74632 25586 ft 411 kts 175°
2026-05-06 15:52 36.08240 3.75400 25800 ft 411 kts 176°
2026-05-06 15:52 36.05448 3.76181 26052 ft 410 kts 176°
2026-05-06 15:52 36.02663 3.76959 26299 ft 410 kts 176°
2026-05-06 15:53 35.99913 3.77736 26549 ft 410 kts 176°
2026-05-06 15:53 35.97131 3.78539 26782 ft 410 kts 176°
2026-05-06 15:53 35.94358 3.79361 27034 ft 410 kts 176°
2026-05-06 15:53 35.91576 3.80208 27281 ft 410 kts 176°
2026-05-06 15:54 35.88806 3.81075 27511 ft 410 kts 176°
2026-05-06 15:54 35.86050 3.81968 27759 ft 410 kts 176°
2026-05-06 15:54 35.83302 3.82886 28022 ft 409 kts 176°
2026-05-06 15:54 35.80553 3.83828 28277 ft 409 kts 176°
2026-05-06 15:55 35.77845 3.84778 28519 ft 409 kts 176°
2026-05-06 15:55 35.75111 3.85761 28790 ft 408 kts 176°
2026-05-06 15:55 35.72393 3.86763 29058 ft 408 kts 176°
2026-05-06 15:55 35.69672 3.87788 29334 ft 408 kts 176°
2026-05-06 15:56 35.66961 3.88841 29565 ft 408 kts 176°
2026-05-06 15:56 35.64268 3.89936 29844 ft 407 kts 176°
2026-05-06 15:56 35.61613 3.91043 30079 ft 406 kts 176°
2026-05-06 15:56 35.58941 3.92173 30304 ft 405 kts 176°
2026-05-06 15:57 35.56269 3.93315 30546 ft 404 kts 176°
2026-05-06 15:57 35.53619 3.94456 30782 ft 402 kts 176°
2026-05-06 15:57 35.50986 3.95598 31025 ft 400 kts 176°
2026-05-06 15:57 35.48393 3.96731 31255 ft 399 kts 176°
2026-05-06 15:58 35.45783 3.97878 31501 ft 397 kts 176°
2026-05-06 15:58 35.43188 3.99027 31696 ft 396 kts 176°
2026-05-06 15:58 35.40597 4.00182 31955 ft 394 kts 176°
2026-05-06 15:58 35.38018 4.01341 32210 ft 393 kts 176°
2026-05-06 15:59 35.35509 4.02474 32462 ft 392 kts 176°
2026-05-06 15:59 35.32966 4.03625 32705 ft 392 kts 176°
2026-05-06 15:59 35.30440 4.04770 32969 ft 391 kts 176°
2026-05-06 15:59 35.27882 4.05930 33225 ft 390 kts 176°
2026-05-06 16:00 35.25337 4.07086 33485 ft 390 kts 176°
2026-05-06 16:00 35.22792 4.08246 33756 ft 389 kts 176°
2026-05-06 16:00 35.20250 4.09408 33996 ft 388 kts 176°
2026-05-06 16:00 35.17724 4.10563 34180 ft 387 kts 176°
2026-05-06 16:01 35.15233 4.11702 34402 ft 386 kts 176°
2026-05-06 16:01 35.12715 4.12850 34619 ft 385 kts 176°
2026-05-06 16:01 35.10209 4.13991 34864 ft 384 kts 176°
2026-05-06 16:01 35.07701 4.15132 35104 ft 383 kts 176°
2026-05-06 16:02 35.05199 4.16266 35340 ft 383 kts 176°
2026-05-06 16:02 35.02704 4.17395 35590 ft 382 kts 176°
2026-05-06 16:02 35.00209 4.18525 35835 ft 381 kts 176°
2026-05-06 16:02 34.97750 4.19636 36071 ft 380 kts 176°
2026-05-06 16:03 34.95266 4.20755 36318 ft 380 kts 176°
2026-05-06 16:03 34.92770 4.21876 36552 ft 380 kts 176°
2026-05-06 16:03 34.90274 4.22989 36656 ft 383 kts 176°
2026-05-06 16:03 34.87787 4.24093 36749 ft 386 kts 176°
2026-05-06 16:04 34.82675 4.26336 36817 ft 391 kts 176°
2026-05-06 16:04 34.77602 4.28575 36808 ft 382 kts 176°
2026-05-06 16:05 34.72652 4.30793 36824 ft 380 kts 176°
2026-05-06 16:05 34.67672 4.33022 36823 ft 381 kts 176°
2026-05-06 16:06 34.62694 4.35253 36810 ft 379 kts 176°
2026-05-06 16:06 34.57773 4.37470 36800 ft 379 kts 176°
2026-05-06 16:07 34.53175 4.39544 36801 ft 379 kts 176°
2026-05-06 16:07 34.48250 4.41764 36799 ft 379 kts 176°
2026-05-06 16:08 34.43298 4.43998 36778 ft 379 kts 176°
2026-05-06 16:08 34.38375 4.46219 36730 ft 379 kts 176°
2026-05-06 16:09 34.33431 4.48468 36768 ft 379 kts 176°
2026-05-06 16:09 34.28516 4.50712 36785 ft 379 kts 176°
2026-05-06 16:10 34.23559 4.52974 36783 ft 381 kts 176°
2026-05-06 16:10 34.18572 4.55243 36780 ft 382 kts 176°
2026-05-06 16:11 34.13606 4.57497 36729 ft 384 kts 176°
2026-05-06 16:11 34.08633 4.59654 36838 ft 379 kts 175°
2026-05-06 16:12 34.06396 4.60965 36649 ft 392 kts 175°
2026-05-06 16:12 34.03866 4.62023 36764 ft 390 kts 174°
2026-05-06 16:12 33.98725 4.64221 36773 ft 394 kts 176°
2026-05-06 16:13 33.93578 4.66389 36758 ft 390 kts 176°
2026-05-06 16:13 33.88521 4.68545 36763 ft 383 kts 176°
2026-05-06 16:14 33.83499 4.70683 36768 ft 383 kts 176°
2026-05-06 16:14 33.78436 4.72804 36753 ft 385 kts 176°
2026-05-06 16:15 33.73368 4.74908 36764 ft 386 kts 176°
2026-05-06 16:15 33.68299 4.77001 36771 ft 388 kts 176°
2026-05-06 16:16 33.63188 4.79101 36765 ft 389 kts 176°
2026-05-06 16:16 33.58455 4.81037 36724 ft 390 kts 176°
2026-05-06 16:17 33.53319 4.82982 36626 ft 382 kts 179°
2026-05-06 16:17 33.48194 4.85011 36740 ft 385 kts 176°
2026-05-06 16:18 33.43091 4.86953 36752 ft 386 kts 176°
2026-05-06 16:18 33.37956 4.88907 36750 ft 387 kts 176°
2026-05-06 16:19 33.32837 4.90852 36749 ft 388 kts 176°
2026-05-06 16:19 33.27676 4.92809 36742 ft 388 kts 176°
2026-05-06 16:20 33.22512 4.94765 36755 ft 388 kts 176°
2026-05-06 16:20 33.17385 4.96707 36745 ft 389 kts 176°
2026-05-06 16:21 33.12214 4.98671 36749 ft 389 kts 176°
2026-05-06 16:21 33.07037 5.00637 36748 ft 390 kts 176°
2026-05-06 16:22 33.01852 5.02596 36741 ft 390 kts 176°
2026-05-06 16:22 32.96678 5.04526 36743 ft 391 kts 176°
2026-05-06 16:23 32.91491 5.06450 36744 ft 393 kts 176°
2026-05-06 16:23 32.86248 5.08384 36744 ft 394 kts 176°
2026-05-06 16:24 32.81025 5.10306 36739 ft 395 kts 176°
2026-05-06 16:24 32.75762 5.12237 36728 ft 394 kts 176°
2026-05-06 16:25 32.70534 5.14152 36728 ft 395 kts 176°
2026-05-06 16:25 32.65276 5.16075 36738 ft 395 kts 176°
2026-05-06 16:26 32.60009 5.17999 36731 ft 395 kts 176°
2026-05-06 16:26 32.54775 5.19908 36726 ft 395 kts 176°
2026-05-06 16:27 32.49500 5.21828 36705 ft 395 kts 176°
2026-05-06 16:27 32.44267 5.23691 36723 ft 394 kts 176°
2026-05-06 16:28 32.39029 5.25532 36728 ft 394 kts 176°
2026-05-06 16:28 32.36388 5.26351 36710 ft 384 kts 187°
2026-05-06 16:28 32.33871 5.26108 36745 ft 352 kts 210°
2026-05-06 16:29 32.31845 5.24677 36725 ft 332 kts 234°
2026-05-06 16:29 32.30687 5.22387 36727 ft 326 kts 256°
2026-05-06 16:29 32.29989 5.17035 36737 ft 338 kts 265°
2026-05-06 16:30 32.30176 5.13270 36724 ft 350 kts 277°
2026-05-06 16:30 32.31885 5.08781 36728 ft 379 kts 300°
2026-05-06 16:30 32.33872 5.06587 36716 ft 406 kts 317°
2026-05-06 16:31 32.36412 5.05025 36750 ft 422 kts 324°
2026-05-06 16:31 32.39138 5.03618 36735 ft 429 kts 326°
2026-05-06 16:31 32.43775 5.01402 36721 ft 432 kts 327°
2026-05-06 16:32 32.49369 4.98739 36721 ft 431 kts 327°
2026-05-06 16:32 32.54884 4.96043 36743 ft 430 kts 326°
2026-05-06 16:33 32.60410 4.93294 36740 ft 430 kts 325°
2026-05-06 16:34 32.68696 4.89146 36736 ft 430 kts 325°
2026-05-06 16:34 32.74188 4.86392 36730 ft 430 kts 325°
2026-05-06 16:35 32.79702 4.83624 36781 ft 430 kts 325°
2026-05-06 16:35 32.85202 4.80858 36756 ft 430 kts 325°
2026-05-06 16:36 32.90729 4.78076 36750 ft 431 kts 325°
2026-05-06 16:36 32.96230 4.75304 36749 ft 431 kts 325°
2026-05-06 16:37 33.01766 4.72511 36759 ft 431 kts 325°
2026-05-06 16:37 33.07297 4.69716 36788 ft 432 kts 325°
2026-05-06 16:38 33.12938 4.67187 36804 ft 440 kts 331°
2026-05-06 16:38 33.15774 4.65895 36750 ft 429 kts 323°
2026-05-06 16:38 33.18467 4.64392 36755 ft 428 kts 322°
2026-05-06 16:39 33.23894 4.61403 36760 ft 430 kts 323°
2026-05-06 16:39 33.29359 4.58533 36770 ft 432 kts 324°
2026-05-06 16:40 33.34919 4.55687 36777 ft 435 kts 324°
2026-05-06 16:40 33.40469 4.52862 36778 ft 436 kts 324°
2026-05-06 16:41 33.46072 4.50009 36777 ft 437 kts 324°
2026-05-06 16:41 33.51655 4.47158 36773 ft 438 kts 324°
2026-05-06 16:42 33.57273 4.44285 36768 ft 438 kts 324°
2026-05-06 16:42 33.62931 4.41480 36783 ft 450 kts 328°
2026-05-06 16:42 33.65756 4.40085 36782 ft 427 kts 316°
2026-05-06 16:43 33.68542 4.38650 36764 ft 450 kts 329°
2026-05-06 16:43 33.71396 4.37420 36756 ft 436 kts 322°
2026-05-06 16:43 33.74166 4.35940 36808 ft 432 kts 322°
2026-05-06 16:44 33.79635 4.32938 36784 ft 431 kts 322°
2026-05-06 16:44 33.85090 4.30022 36784 ft 431 kts 322°
2026-05-06 16:45 33.90604 4.27145 36832 ft 432 kts 322°
2026-05-06 16:45 33.96131 4.24286 36809 ft 431 kts 322°
2026-05-06 16:46 34.01631 4.21445 36800 ft 430 kts 322°
2026-05-06 16:46 34.07101 4.18613 36826 ft 429 kts 322°
2026-05-06 16:47 34.12608 4.15754 36819 ft 429 kts 322°
2026-05-06 16:47 34.18113 4.12891 36820 ft 431 kts 321°
2026-05-06 16:48 34.23602 4.10031 36831 ft 433 kts 321°
2026-05-06 16:48 34.29159 4.07133 36840 ft 434 kts 322°
2026-05-06 16:49 34.34699 4.04242 36834 ft 436 kts 322°
2026-05-06 16:49 34.40290 4.01320 36843 ft 438 kts 322°
2026-05-06 16:50 34.45879 3.98394 36832 ft 439 kts 322°
2026-05-06 16:50 34.51497 3.95451 36861 ft 439 kts 322°
2026-05-06 16:51 34.57070 3.92529 36856 ft 438 kts 322°
2026-05-06 16:51 34.62663 3.89591 36873 ft 437 kts 322°
2026-05-06 16:52 34.68235 3.86657 36893 ft 436 kts 322°
2026-05-06 16:52 34.73808 3.83718 36870 ft 435 kts 322°
2026-05-06 16:53 34.79328 3.80803 36885 ft 434 kts 322°
2026-05-06 16:53 34.84875 3.77869 36872 ft 434 kts 322°
2026-05-06 16:54 34.90415 3.74936 36858 ft 429 kts 322°
2026-05-06 16:54 34.93075 3.73543 36847 ft 413 kts 321°
2026-05-06 16:54 34.95673 3.72186 36870 ft 399 kts 321°
2026-05-06 16:54 34.98186 3.70869 36852 ft 385 kts 320°
2026-05-06 16:55 35.00609 3.69592 36841 ft 372 kts 320°
2026-05-06 16:55 35.02935 3.68363 36850 ft 358 kts 319°
2026-05-06 16:55 35.05164 3.67178 36859 ft 350 kts 319°
2026-05-06 16:56 35.09675 3.64727 36886 ft 362 kts 319°
2026-05-06 16:56 35.14380 3.62170 36878 ft 377 kts 320°
2026-05-06 16:57 35.19260 3.59545 36883 ft 391 kts 320°
2026-05-06 16:57 35.24338 3.56826 36871 ft 406 kts 321°
2026-05-06 16:58 35.29599 3.54014 36876 ft 417 kts 321°
2026-05-06 16:58 35.34973 3.51139 36878 ft 429 kts 322°
2026-05-06 16:59 35.40515 3.48167 36875 ft 439 kts 322°
2026-05-06 16:59 35.46162 3.45139 36910 ft 444 kts 322°
2026-05-06 17:00 35.51808 3.42114 36879 ft 443 kts 322°
2026-05-06 17:00 35.57469 3.39069 36869 ft 442 kts 322°
2026-05-06 17:01 35.63069 3.36047 36871 ft 442 kts 322°
2026-05-06 17:01 35.68705 3.32997 36871 ft 441 kts 322°
2026-05-06 17:02 35.74292 3.29970 36898 ft 440 kts 322°
2026-05-06 17:02 35.79871 3.26943 36883 ft 438 kts 322°
2026-05-06 17:03 35.85451 3.23911 36884 ft 437 kts 322°
2026-05-06 17:03 35.91011 3.20885 36884 ft 434 kts 322°
2026-05-06 17:03 35.93755 3.19399 36743 ft 424 kts 321°
2026-05-06 17:04 35.96414 3.17958 36208 ft 421 kts 321°
2026-05-06 17:04 35.99104 3.16487 35473 ft 424 kts 321°
2026-05-06 17:04 36.01814 3.14993 34688 ft 428 kts 321°
2026-05-06 17:04 36.04553 3.13484 33935 ft 432 kts 320°
2026-05-06 17:05 36.07315 3.11967 33137 ft 434 kts 321°
2026-05-06 17:05 36.10024 3.10493 32552 ft 423 kts 321°
2026-05-06 17:05 36.12694 3.09048 31872 ft 414 kts 321°
2026-05-06 17:05 36.15312 3.07624 31096 ft 408 kts 321°
2026-05-06 17:06 36.17899 3.06205 30259 ft 405 kts 322°
2026-05-06 17:06 36.20442 3.04805 29350 ft 402 kts 322°
2026-05-06 17:06 36.22974 3.03380 28411 ft 399 kts 324°
2026-05-06 17:06 36.25491 3.01950 27491 ft 394 kts 324°
2026-05-06 17:07 36.28042 3.00640 26580 ft 396 kts 327°
2026-05-06 17:07 36.30573 2.99317 25712 ft 391 kts 326°
2026-05-06 17:07 36.33046 2.97905 24897 ft 390 kts 328°
2026-05-06 17:07 36.35529 2.96521 24069 ft 390 kts 330°
2026-05-06 17:08 36.37976 2.95177 23254 ft 388 kts 330°
2026-05-06 17:08 36.40433 2.93800 22314 ft 386 kts 330°
2026-05-06 17:08 36.42890 2.92427 21425 ft 384 kts 330°
2026-05-06 17:08 36.45326 2.91071 20538 ft 383 kts 330°
2026-05-06 17:09 36.47750 2.89727 19706 ft 380 kts 330°
2026-05-06 17:09 36.50109 2.88289 18857 ft 372 kts 321°
2026-05-06 17:09 36.52116 2.86328 18053 ft 364 kts 314°
2026-05-06 17:09 36.53963 2.84259 17142 ft 360 kts 313°
2026-05-06 17:10 36.55587 2.81976 16233 ft 350 kts 297°
2026-05-06 17:10 36.56518 2.79275 15402 ft 341 kts 285°
2026-05-06 17:10 36.57157 2.76517 14578 ft 338 kts 283°
2026-05-06 17:10 36.57742 2.73719 13760 ft 336 kts 282°
2026-05-06 17:11 36.58290 2.71003 12879 ft 334 kts 282°
2026-05-06 17:11 36.58840 2.68200 11992 ft 332 kts 282°
2026-05-06 17:11 36.59373 2.65410 11128 ft 330 kts 282°
2026-05-06 17:11 36.59890 2.62674 10302 ft 329 kts 282°
2026-05-06 17:12 36.60435 2.59914 9437 ft 327 kts 287°
2026-05-06 17:12 36.61546 2.57458 8690 ft 325 kts 310°
2026-05-06 17:12 36.63330 2.55791 8065 ft 321 kts 333°
2026-05-06 17:12 36.65479 2.55186 7621 ft 315 kts 358°
2026-05-06 17:13 36.67589 2.55723 7233 ft 307 kts 23°
2026-05-06 17:13 36.69279 2.57266 6862 ft 300 kts 49°
2026-05-06 17:13 36.70253 2.59467 6558 ft 290 kts 73°
2026-05-06 17:13 36.70495 2.61908 6323 ft 281 kts 95°
2026-05-06 17:14 36.70235 2.64299 6085 ft 277 kts 100°
2026-05-06 17:14 36.69928 2.66654 5827 ft 273 kts 100°
2026-05-06 17:14 36.69628 2.68981 5572 ft 270 kts 99°
2026-05-06 17:14 36.69337 2.71256 5326 ft 267 kts 99°
2026-05-06 17:15 36.69054 2.73540 5090 ft 264 kts 98°
2026-05-06 17:15 36.68777 2.75780 4992 ft 255 kts 98°
2026-05-06 17:15 36.68541 2.77924 4960 ft 243 kts 90°
2026-05-06 17:15 36.68848 2.79936 4949 ft 239 kts 71°
2026-05-06 17:16 36.69342 2.81932 4704 ft 242 kts 72°
2026-05-06 17:16 36.69813 2.83949 4457 ft 241 kts 76°
2026-05-06 17:16 36.69997 2.86024 4202 ft 240 kts 89°
2026-05-06 17:16 36.69962 2.88079 3956 ft 234 kts 91°
2026-05-06 17:17 36.69895 2.90067 3747 ft 225 kts 91°
2026-05-06 17:17 36.69837 2.91980 3560 ft 215 kts 91°
2026-05-06 17:17 36.69787 2.93789 3483 ft 202 kts 91°
2026-05-06 17:17 36.69743 2.95470 3429 ft 187 kts 90°
2026-05-06 17:18 36.69703 2.97036 3227 ft 181 kts 90°
2026-05-06 17:18 36.69663 2.98584 3003 ft 176 kts 90°
2026-05-06 17:18 36.69625 3.00101 2763 ft 175 kts 90°
2026-05-06 17:18 36.69586 3.01621 2510 ft 173 kts 90°
2026-05-06 17:19 36.69548 3.03087 2314 ft 165 kts 89°
2026-05-06 17:19 36.69513 3.04471 2114 ft 154 kts 89°
2026-05-06 17:19 36.69482 3.05794 1894 ft 152 kts 89°
2026-05-06 17:19 36.69449 3.07131 1692 ft 156 kts 89°
2026-05-06 17:20 36.69415 3.08496 1474 ft 158 kts 89°
2026-05-06 17:20 36.69375 3.09844 1269 ft 150 kts 90°
2026-05-06 17:20 36.69343 3.11118 998 ft 147 kts 90°
2026-05-06 17:20 36.69320 3.11974 869 ft 148 kts 88°
2026-05-06 17:21 36.69303 3.13239 770 ft 148 kts 90°
2026-05-06 17:21 36.69269 3.14532 580 ft 149 kts 90°
2026-05-06 17:21 36.69236 3.15833 330 ft 150 kts 90°
2026-05-06 17:21 36.69199 3.17488 91 ft 135 kts 90°
2026-05-06 17:22 36.69172 3.18523 78 ft 93 kts 92°
2026-05-06 17:22 36.69161 3.18945 70 ft 47 kts 91°
2026-05-06 17:22 36.69153 3.19338 74 ft 44 kts 91°
2026-05-06 17:22 36.69153 3.19661 71 ft 28 kts 85°
2026-05-06 17:23 36.69207 3.19881 66 ft 26 kts 63°
2026-05-06 17:23 36.69267 3.20025 66 ft 12 kts 62°
2026-05-06 17:23 36.69295 3.20124 62 ft 12 kts 79°
2026-05-06 17:23 36.69299 3.20227 70 ft 12 kts 91°
2026-05-06 17:24 36.69351 3.20289 67 ft 12 kts
2026-05-06 17:24 36.69430 3.20306 65 ft 12 kts 41°
2026-05-06 17:24 36.69492 3.20365 68 ft 12 kts
2026-05-06 17:24 36.69572 3.20367 69 ft 11 kts
2026-05-06 17:25 36.69649 3.20370 69 ft 11 kts
2026-05-06 17:25 36.69669 3.20361 69 ft 2 kts 310°
2026-05-06 17:25 36.69675 3.20328 69 ft 5 kts 270°
2026-05-06 17:25 36.69674 3.20303 69 ft 1 kts 270°
2026-05-06 17:26 36.69674 3.20288 69 ft 0 kts 270°
2026-05-06 17:26 36.69674 3.20283 69 ft 0 kts 270°